Theta_e
321 322 322 323 323 323 323 323 323 323 322 321 318 318 317 317 316 316 316 315 314 313 313 315 316 317 326 334 335 317 314 314 319 322 329 332 339 339 336 342 348 355 352 352 351 351 353
322 322 323 323 323 323 323 323 324 324 323 323 321 320 319 318 317 316 316 316 315 314 314 315 316 319 329 337 328 318 318 320 323 323 326 330 338 336 333 340 351 349 352 352 351 351 351
323 323 323 323 324 324 324 323 323 324 324 324 323 322 321 320 319 318 316 315 315 314 314 315 316 324 332 336 331 324 320 323 324 323 325 327 333 333 333 348 348 350 356 353 354 353 353
323 322 322 322 322 322 322 323 323 323 323 324 324 323 322 321 320 319 317 314 314 315 315 316 317 328 338 330 328 328 324 323 323 324 324 327 333 332 331 346 344 355 358 354 355 351 350
322 321 321 321 320 321 322 323 323 323 323 324 324 324 323 322 321 320 316 313 318 321 317 316 324 331 335 329 325 326 324 324 323 324 325 327 329 331 331 348 354 353 355 352 358 352 350
321 320 320 319 319 320 321 322 323 323 323 324 324 324 323 323 321 320 315 318 323 320 320 326 328 334 334 330 327 325 321 323 324 324 325 327 331 331 331 337 357 355 353 353 358 358 354
320 319 318 317 318 318 319 319 320 320 321 322 323 323 323 323 322 319 314 326 332 332 333 331 334 332 331 325 325 323 322 322 324 323 324 328 332 331 332 336 345 346 346 350 354 356 356
318 319 318 316 315 316 316 317 318 319 318 320 322 322 323 323 322 319 315 327 329 327 328 332 332 331 329 325 324 325 322 323 323 323 323 328 329 329 331 335 345 349 349 349 353 350 357
312 312 314 313 313 314 315 316 317 318 318 320 321 322 321 321 321 318 320 326 326 325 328 330 330 329 329 327 325 326 323 324 323 323 325 327 328 327 329 330 335 345 346 345 342 346 350
307 308 309 309 310 312 313 315 318 319 318 319 321 322 321 320 322 326 326 324 325 325 330 331 330 328 329 328 327 327 326 325 326 325 325 326 326 326 327 328 331 333 336 340 338 338 347
304 304 306 307 309 311 314 316 318 319 318 317 320 321 321 319 320 327 327 324 324 325 334 332 331 329 329 328 330 327 327 326 325 324 324 325 325 324 325 326 327 330 335 337 336 336 339
303 304 309 311 312 313 314 316 317 317 317 316 320 320 321 322 322 325 327 325 323 329 332 334 331 330 330 329 330 328 327 326 326 325 324 324 326 324 324 325 325 327 332 336 336 336 337
304 308 310 311 311 312 313 314 315 316 317 317 319 318 319 319 325 327 325 324 326 328 330 333 332 331 329 330 330 328 326 325 326 325 326 325 324 326 324 323 324 324 327 331 337 337 338
306 307 309 311 311 312 314 313 314 317 315 317 317 317 320 321 324 325 325 324 327 329 328 330 333 331 330 330 330 329 327 326 326 326 327 329 327 325 326 325 325 324 325 330 341 352 351
306 308 310 311 312 312 312 313 314 315 316 318 318 322 325 327 323 325 327 327 328 330 331 330 330 333 331 330 330 330 329 330 329 328 327 329 329 327 327 326 326 325 326 328 332 344 352
305 306 309 310 311 312 312 313 314 314 314 317 318 324 327 326 324 324 329 327 328 329 330 328 329 332 332 331 330 331 331 331 330 330 328 328 330 327 327 326 326 329 328 329 331 340 352
304 305 308 310 311 312 313 313 313 314 315 319 322 331 327 325 324 327 330 329 329 328 329 329 329 330 332 332 332 332 331 331 331 329 328 327 329 334 330 326 326 327 332 332 332 334 339
305 306 307 309 310 312 313 314 315 314 314 318 325 332 328 325 327 328 330 329 325 329 329 329 328 328 330 331 334 334 334 332 331 329 328 327 328 333 334 329 328 328 331 332 332 337 334
306 307 306 307 310 312 313 313 315 313 313 315 327 330 327 326 329 330 329 328 328 328 328 328 329 328 328 330 333 332 333 333 332 330 329 330 329 331 332 335 330 329 330 332 331 332 337
307 306 306 307 310 312 313 313 313 312 313 315 326 330 330 330 329 330 330 332 331 327 327 326 328 328 328 327 328 331 332 331 331 331 335 330 330 331 331 340 339 338 331 331 331 334 336
307 307 306 309 310 311 312 313 313 313 313 316 329 330 330 332 333 333 332 331 331 332 331 327 328 327 327 328 327 328 330 332 332 338 331 330 330 331 332 336 337 338 337 335 330 332 333
307 307 307 308 309 310 311 314 314 312 313 321 328 327 326 328 328 328 327 331 328 329 330 331 331 329 329 328 329 328 328 332 333 332 331 330 336 331 332 332 334 337 338 338 331 333 333
306 306 306 307 309 309 311 313 313 313 314 321 321 321 325 326 326 327 327 328 328 329 328 329 330 332 332 331 332 331 331 331 332 333 333 334 336 338 335 331 337 344 340 337 334 335 335
305 306 306 307 309 308 310 312 313 313 313 315 319 320 323 326 326 326 326 327 327 327 328 328 329 329 329 329 330 330 330 330 331 333 333 338 341 342 336 337 339 335 337 336 332 332 331
305 306 305 307 306 308 310 312 313 313 314 315 317 319 322 324 324 324 325 326 326 326 326 326 326 326 326 327 328 330 330 331 331 331 332 333 337 339 341 339 337 335 335 336 334 334 331
305 305 304 306 306 306 309 312 313 313 313 314 316 318 320 322 325 323 324 325 326 325 325 325 325 326 325 326 326 329 329 330 330 331 330 330 334 338 337 338 340 339 335 335 336 337 332
303 302 303 303 305 306 307 310 312 312 312 312 315 317 317 322 321 321 324 324 323 325 326 326 326 326 325 326 328 328 329 328 331 332 337 335 336 337 336 338 336 336 334 334 342 339 334
302 302 303 303 303 305 306 307 311 311 311 312 314 316 318 320 320 319 319 321 322 323 324 324 325 326 327 326 327 327 327 328 329 333 336 338 342 338 339 340 340 336 336 337 338 335 334
301 301 304 305 303 304 305 306 307 310 311 310 312 316 315 316 318 315 315 316 317 319 322 322 323 326 329 330 332 334 339 335 335 338 333 335 338 340 335 337 340 339 336 334 333 338 335
Wind_Speed
22 22 23 23 23 24 23 23 22 22 22 22 20 20 22 20 19 17 15 13 11 8 6 6 6 3 2 8 7 7 10 12 11 12 14 14 15 15 14 2 2 6 9 11 9 6 7
21 22 22 23 24 24 24 24 24 23 23 23 22 22 24 23 24 20 16 13 10 8 6 6 6 3 5 11 11 10 12 12 13 15 16 16 14 11 10 6 4 9 7 11 12 10 6
22 22 23 23 23 24 25 25 26 24 24 24 24 24 25 26 27 23 16 12 9 7 7 6 5 2 9 12 4 10 12 13 15 14 14 13 15 10 15 9 11 11 8 20 13 10 7
23 24 24 24 24 23 24 25 25 25 24 25 25 26 26 27 29 25 15 10 8 9 8 7 5 4 8 6 5 9 12 14 15 13 14 14 7 12 16 3 7 6 9 4 8 11 6
24 23 24 25 25 24 23 24 25 26 25 25 26 27 26 27 29 25 14 8 8 6 7 7 4 7 14 7 9 12 13 15 15 13 12 10 9 14 19 13 11 9 8 17 10 9 10
22 22 24 25 25 24 24 24 25 26 26 25 26 27 27 27 28 24 11 7 5 1 2 6 14 9 13 12 10 11 11 14 12 13 12 13 9 13 15 15 5 4 10 7 16 9 14
21 21 22 24 24 24 24 25 26 27 27 26 27 28 28 27 27 22 8 5 4 6 13 15 7 13 9 7 7 9 11 13 13 13 14 15 13 14 18 16 16 17 12 16 12 23 18
21 21 22 24 24 25 25 25 26 27 27 27 29 28 28 27 27 15 7 7 9 11 14 22 20 18 1 11 9 11 12 12 12 14 16 15 15 18 17 8 24 19 15 13 15 11 10
22 23 22 23 24 24 25 26 26 27 27 27 29 28 29 28 24 10 12 17 12 12 10 17 20 17 13 12 11 15 15 15 12 15 16 17 16 16 19 13 9 18 11 10 1 7 10
21 21 22 23 24 25 26 27 28 26 26 27 29 28 28 30 9 11 16 6 6 11 7 14 18 12 16 11 13 16 18 13 10 13 15 16 16 13 8 10 12 14 9 12 6 7 4
22 22 23 23 24 25 26 27 28 27 27 29 30 28 27 25 16 10 9 7 9 10 6 13 17 9 15 15 11 9 18 17 15 12 11 15 12 16 12 15 12 16 1 8 11 9 13
22 22 22 23 23 25 25 27 29 30 29 32 29 28 28 7 8 15 13 10 9 6 9 11 9 11 16 16 9 10 12 15 10 15 13 17 13 11 16 13 15 17 11 11 12 12 12
22 21 22 23 24 25 25 27 29 32 32 33 31 28 27 14 9 4 8 8 6 9 5 10 19 16 17 16 17 12 12 14 12 9 12 12 16 10 11 15 17 16 15 10 11 10 7
21 21 22 24 24 26 25 27 31 31 35 34 34 28 15 15 8 11 9 8 11 11 19 8 9 14 15 17 15 13 12 13 15 18 15 13 15 19 13 16 14 17 18 14 8 6 4
20 20 21 23 26 28 25 27 32 33 37 39 32 15 8 8 10 8 7 11 8 16 15 16 6 13 17 17 16 18 17 16 17 18 17 18 14 18 16 12 19 13 16 21 16 6 3
19 20 20 23 26 29 26 28 32 35 39 31 21 14 17 9 8 8 8 17 17 23 20 10 14 11 16 19 19 18 16 17 16 16 14 21 3 13 11 12 18 18 11 13 12 13 9
19 18 19 21 23 26 27 29 30 35 41 19 7 5 10 6 10 6 11 15 19 21 18 9 15 19 16 16 16 18 13 14 13 14 12 16 15 4 8 11 16 11 11 10 14 6 7
20 18 19 20 22 24 25 27 28 33 40 19 8 5 11 8 7 8 12 18 18 23 16 12 10 18 20 18 15 16 17 15 10 11 14 13 14 9 15 16 15 16 16 14 10 10 9
19 18 18 19 20 22 23 25 25 29 30 17 6 10 7 9 8 11 15 18 18 15 12 13 16 15 18 18 15 16 13 15 5 10 12 15 10 10 8 12 15 19 15 14 13 14 3
19 18 18 19 18 21 23 25 25 26 26 16 5 5 7 7 10 16 15 15 16 11 16 15 19 15 16 18 16 15 16 15 14 9 7 6 13 12 13 9 4 15 15 13 13 10 8
19 19 17 19 19 19 22 24 25 28 28 7 5 6 14 8 8 12 12 14 15 15 14 11 12 16 19 15 16 17 17 18 14 10 10 9 17 18 17 12 14 32 15 20 18 16 13
17 18 17 19 19 17 20 23 24 29 30 6 6 9 11 12 17 16 13 14 17 17 17 18 13 14 14 17 18 18 19 17 17 11 14 16 16 19 20 18 4 9 17 21 20 9 10
15 16 16 18 18 16 17 19 21 24 22 14 19 17 8 10 15 15 13 15 16 13 11 15 14 15 13 11 14 13 15 15 14 16 15 13 11 15 19 18 4 6 26 27 13 18 15
14 14 16 17 17 15 14 16 18 20 18 12 18 14 8 12 13 14 18 15 14 11 12 13 16 15 14 20 15 15 14 16 17 18 17 7 8 14 14 16 20 8 21 30 15 5 6
11 13 15 14 15 13 13 14 14 16 17 15 13 12 6 9 13 16 18 16 12 13 15 17 18 18 19 17 13 13 12 17 20 21 21 18 13 14 8 15 20 12 9 9 5 8 7
12 14 14 14 14 14 12 14 14 15 15 13 13 12 10 7 2 16 14 15 11 12 14 16 17 13 13 9 11 18 16 19 17 22 23 23 21 13 14 17 19 11 15 22 12 11 7
13 14 14 15 15 14 12 12 13 13 13 13 13 11 9 10 16 12 11 12 13 10 10 13 15 12 7 8 12 15 17 19 20 22 18 17 18 18 15 15 8 11 5 18 6 10 6
11 13 14 15 15 14 14 12 12 13 13 12 14 8 6 5 15 20 18 14 14 11 10 8 8 2 9 12 14 14 16 16 19 21 19 13 15 15 14 18 18 16 12 11 13 9 2
11 12 13 15 15 14 13 13 12 12 12 12 16 12 8 6 12 32 32 30 28 25 14 14 10 14 3 6 6 6 7 8 15 13 17 9 8 15 15 13 11 10 5 4 15 12 7
Wind_Direction
22 20 17 17 17 15 15 15 15 14 12 11 11 8 4 358 352 342 330 319 311 304 306 305 305 323 334 233 244 146 167 180 191 210 238 244 245 255 280 61 87 41 114 117 119 98 89
15 14 10 10 9 8 8 8 8 8 7 6 7 5 1 358 353 343 329 315 304 292 289 291 292 323 256 254 107 144 157 178 201 214 236 248 259 333 319 290 115 181 148 140 135 135 110
8 5 2 1 1 1 1 1 0 2 1 0 -0 359 359 356 352 343 330 315 299 285 276 274 269 301 262 266 144 149 182 196 209 215 244 234 267 294 269 32 335 156 82 14 147 152 133
359 357 356 356 354 352 353 354 354 354 354 354 354 354 353 353 350 343 328 312 293 280 261 260 250 245 266 182 221 200 199 208 215 228 255 283 257 275 287 115 268 134 93 280 175 127 140
353 356 357 356 353 351 349 349 349 349 349 349 348 348 348 348 347 341 324 305 303 272 230 234 248 223 261 155 220 214 209 214 214 229 234 276 273 262 258 213 225 49 12 343 282 142 146
352 352 353 352 350 351 353 350 348 347 345 347 344 344 342 343 342 337 316 308 288 200 225 254 265 263 237 237 183 183 202 213 208 221 227 236 243 246 243 252 186 101 298 265 258 226 190
349 347 348 348 349 348 349 350 349 348 347 346 342 340 338 337 337 331 309 283 208 200 223 235 202 235 155 136 152 196 191 218 197 214 221 217 231 238 245 239 129 150 190 237 259 181 176
345 344 345 346 346 345 349 349 346 344 344 344 342 338 334 332 331 316 277 252 357 334 295 230 248 228 353 152 188 183 188 191 197 211 218 221 230 247 258 271 144 164 155 250 175 161 123
346 347 346 345 346 346 346 346 344 342 343 342 341 338 333 328 324 284 236 268 312 314 286 272 219 223 200 177 216 173 195 224 195 218 216 240 221 222 260 274 231 203 203 252 273 169 171
349 348 346 346 347 348 346 346 343 341 341 341 339 336 333 330 306 317 264 256 270 304 280 241 184 208 197 209 229 193 186 215 226 229 233 230 262 279 232 264 266 264 265 200 205 270 249
349 345 344 345 345 345 347 345 342 338 339 337 335 334 326 328 295 283 342 313 308 280 278 127 171 178 182 198 215 192 172 222 248 217 250 242 233 248 221 251 247 264 18 265 282 272 260
348 347 349 348 346 344 343 343 340 338 337 334 329 328 321 312 262 266 292 294 264 238 253 177 130 172 184 211 204 134 179 228 236 261 231 261 269 235 253 235 244 253 242 213 236 247 262
350 350 351 351 347 344 342 340 336 336 335 333 324 320 309 278 246 332 294 251 219 241 213 170 162 188 217 194 232 160 194 205 229 229 236 223 253 221 245 233 223 236 246 249 240 228 269
352 354 351 349 347 344 342 341 339 339 336 335 322 315 286 244 264 262 261 223 238 241 237 288 177 182 204 221 210 178 202 226 218 255 269 225 210 217 206 239 239 209 233 235 240 4 30
348 349 349 349 349 346 344 342 341 341 339 339 327 312 227 248 211 233 233 220 225 245 293 312 208 212 195 220 230 200 205 223 223 207 253 276 236 171 204 212 245 195 231 255 263 97 71
343 345 346 347 348 348 346 345 343 343 338 342 324 296 246 173 210 210 228 241 249 259 299 290 293 248 251 203 219 222 225 214 235 229 207 264 264 172 192 196 238 260 218 233 249 251 189
341 340 343 346 347 349 349 347 347 347 341 345 287 248 119 161 176 217 229 240 248 260 274 283 277 283 270 249 235 228 220 245 221 239 200 253 275 277 252 206 239 221 252 262 277 312 283
340 342 340 342 343 347 348 349 351 354 351 359 301 275 132 177 210 228 241 246 263 283 293 251 263 281 287 290 280 241 245 237 197 214 195 221 262 215 224 199 216 255 214 226 255 238 256
337 339 338 341 341 346 349 350 352 355 359 335 295 299 187 204 252 240 244 235 255 273 284 267 262 250 276 276 290 286 281 248 243 222 236 213 229 262 242 274 201 223 236 250 250 267 65
339 338 340 343 341 344 347 349 350 350 350 345 281 292 200 195 248 281 292 292 294 231 250 279 286 278 259 262 264 275 279 277 262 218 43 316 263 250 262 148 356 297 237 259 256 245 207
338 341 346 348 338 341 346 348 349 348 344 330 247 299 347 296 290 328 313 309 299 296 281 218 265 262 273 272 269 264 254 270 268 155 258 254 253 260 269 165 158 234 286 272 244 257 269
338 342 348 347 336 340 346 351 352 349 342 240 298 346 337 300 302 291 278 266 274 278 271 280 254 252 261 244 260 268 259 254 253 244 216 229 248 258 264 268 244 310 264 282 224 256 285
337 343 345 341 344 344 345 348 350 356 1 325 351 338 306 289 288 289 281 276 281 306 286 307 299 311 287 278 345 336 327 316 297 292 260 246 281 239 249 251 179 36 271 252 203 195 200
338 345 339 343 344 342 345 343 344 350 358 330 314 324 301 293 292 285 295 297 314 306 307 299 308 306 299 323 330 314 309 288 281 279 280 189 265 277 250 272 254 210 224 286 231 244 231
334 332 333 337 341 342 342 347 340 341 345 339 330 322 309 293 305 300 299 317 300 291 277 265 267 276 293 301 293 279 271 272 263 262 260 272 230 253 234 266 274 245 255 286 273 249 236
326 329 334 335 337 338 336 348 340 336 342 340 319 311 319 295 344 348 324 313 306 298 292 280 258 241 261 268 266 258 250 256 256 242 245 247 252 250 251 246 249 293 246 33 15 325 217
324 330 332 333 334 334 331 333 340 336 342 336 304 305 289 286 277 315 313 326 321 311 301 317 349 335 258 255 260 255 257 251 252 253 242 230 236 237 237 240 236 271 108 96 68 262 104
328 330 330 332 332 332 330 321 326 332 337 343 304 339 331 288 295 294 296 304 299 289 273 303 346 319 309 257 259 247 253 253 254 255 259 233 258 232 233 240 238 202 226 229 193 336 45
326 329 331 331 331 330 330 325 313 319 322 325 297 322 318 273 292 300 289 276 265 269 285 288 269 285 45 315 325 339 323 314 301 291 263 245 255 277 228 233 236 162 183 85 233 178 136